timestamp,surface_pressure_avg,surface_temp_avg,battery_voltage,lat,long
2021-04-10 00:09:01+00:00,327.6880000000001,2.6,12.65,47.84626,-54.09684
2021-04-10 00:19:01+00:00,325.4713,2.55,12.65,47.84626,-54.09684
2021-04-10 00:29:01+00:00,320.3614,2.54,12.65,47.84626,-54.09684
2021-04-10 00:39:01+00:00,313.358,2.6,12.65,47.84626,-54.09684
2021-04-10 00:49:01+00:00,308.6447,2.6,12.65,47.84626,-54.09684
2021-04-10 00:59:01+00:00,304.7264,2.59,12.65,47.84626,-54.09684
2021-04-10 01:09:01+00:00,297.178,2.5,12.65,47.84626,-54.09684
2021-04-10 01:19:01+00:00,286.493,2.5,12.65,47.84626,-54.09684
2021-04-10 01:29:01+00:00,279.323,2.5,12.65,47.84626,-54.09684
2021-04-10 01:39:01+00:00,273.5997,2.56,12.65,47.84626,-54.09684
2021-04-10 01:49:01+00:00,264.3614,2.6,12.65,47.84626,-54.09684
2021-04-10 01:59:01+00:00,254.6397,2.6,12.65,47.84626,-54.09684
2021-04-10 02:09:01+00:00,246.6381,2.6,12.65,47.84626,-54.09684
2021-04-10 02:19:01+00:00,239.7214,2.6,12.65,47.84626,-54.09684
2021-04-10 02:29:01+00:00,231.3064,2.6,12.65,47.84626,-54.09684
2021-04-10 02:39:01+00:00,223.8948,2.6,12.65,47.84626,-54.09684
2021-04-10 02:49:01+00:00,217.9914,2.6,12.65,47.84626,-54.09684
2021-04-10 02:59:01+00:00,215.1431,2.6,12.65,47.84626,-54.09684
2021-04-10 03:09:01+00:00,212.7398,2.6,12.65,47.84626,-54.09684
2021-04-10 03:19:01+00:00,206.3098,2.6,12.65,47.84626,-54.09684
2021-04-10 03:29:01+00:00,201.3115,2.6,12.65,47.84626,-54.09684
2021-04-10 03:39:01+00:00,200.9214,2.6,12.65,47.84626,-54.09684
2021-04-10 03:49:01+00:00,196.6098,2.6,12.65,47.84626,-54.09684
2021-04-10 03:59:01+00:00,191.7632,2.6,12.65,47.84626,-54.09684
2021-04-10 04:09:01+00:00,192.7648,2.5,12.65,47.84626,-54.09684
2021-04-10 04:19:01+00:00,193.1281,2.56,12.65,47.84626,-54.09684
2021-04-10 04:29:01+00:00,188.4631,2.6,12.65,47.84626,-54.09684
2021-04-10 04:39:01+00:00,188.0831,2.6,12.65,47.84626,-54.09684
2021-04-10 04:49:01+00:00,194.9148,2.6,12.65,47.84626,-54.09684
2021-04-10 04:59:01+00:00,195.0381,2.59,12.65,47.84626,-54.09684
2021-04-10 05:09:01+00:00,191.6414,2.55,12.65,47.84626,-54.09684
2021-04-10 05:19:01+00:00,195.6548,2.5,12.57,47.84626,-54.09684
2021-04-10 05:29:01+00:00,198.4631,2.5,12.57,47.84626,-54.09684
2021-04-10 05:39:01+00:00,197.203,2.5,12.57,47.84626,-54.09684
2021-04-10 05:49:01+00:00,200.0731,2.46,12.57,47.84626,-54.09684
2021-04-10 05:59:01+00:00,206.8314,2.4,12.57,47.84626,-54.09684
2021-04-10 06:09:01+00:00,210.9548,2.3,12.57,47.84626,-54.09684
2021-04-10 06:19:01+00:00,213.9598,2.3,12.57,47.84626,-54.09684
2021-04-10 06:29:01+00:00,219.2098,2.3,12.57,47.84626,-54.09684
2021-04-10 06:39:01+00:00,225.0548,2.3,12.57,47.84626,-54.09684
2021-04-10 06:49:01+00:00,230.5681,2.0,12.57,47.84626,-54.09684
2021-04-10 06:59:01+00:00,235.6564,1.8,12.57,47.84626,-54.09684
2021-04-10 07:09:01+00:00,240.2664,1.83,12.57,47.84626,-54.09684
2021-04-10 07:19:01+00:00,245.3298,2.13,12.57,47.84626,-54.09684
2021-04-10 07:29:01+00:00,251.4098,2.18,12.57,47.84626,-54.09684
2021-04-10 07:39:01+00:00,258.0597,1.86,12.57,47.84626,-54.09684
2021-04-10 07:49:01+00:00,263.8648,1.83,12.57,47.84626,-54.09684
2021-04-10 07:59:01+00:00,270.4331,2.0,12.57,47.84626,-54.09684
2021-04-10 08:09:01+00:00,279.3848,2.04,12.57,47.84626,-54.09684
2021-04-10 08:19:01+00:00,285.8763,1.5,12.49,47.84626,-54.09684
2021-04-10 08:29:01+00:00,288.9996,1.5,12.49,47.84626,-54.09684
2021-04-10 08:39:01+00:00,295.7463,1.52,12.49,47.84626,-54.09684
2021-04-10 08:49:01+00:00,305.3713,1.5,12.49,47.84626,-54.09684
2021-04-10 08:59:01+00:00,310.8931,1.6,12.49,47.84626,-54.09684
2021-04-10 09:09:01+00:00,316.243,1.6,12.49,47.84626,-54.09684
2021-04-10 09:19:01+00:00,324.9246,1.55,12.49,47.84626,-54.09684
2021-04-10 09:29:01+00:00,330.4063,1.5,12.49,47.84626,-54.09684
2021-04-10 09:39:01+00:00,333.9547,1.5,12.49,47.84626,-54.09684
2021-04-10 09:49:01+00:00,338.7797,1.57,12.49,47.84626,-54.09684
2021-04-10 09:59:01+00:00,342.9697,1.66,12.49,47.84626,-54.09684
2021-04-10 10:09:01+00:00,345.0596,1.7,12.49,47.84626,-54.09684
2021-04-10 10:19:01+00:00,348.8445,1.76,12.49,47.84626,-54.09684
2021-04-10 10:29:01+00:00,352.8196,1.89,12.49,47.84626,-54.09684
2021-04-10 10:39:01+00:00,353.7747,1.9,12.49,47.84626,-54.09684
2021-04-10 10:49:01+00:00,352.8596,1.8,12.49,47.84626,-54.09684
2021-04-10 10:59:01+00:00,353.4229,1.8,12.49,47.84626,-54.09684
2021-04-10 11:09:01+00:00,353.9146,1.79,12.49,47.84626,-54.09684
2021-04-10 11:19:01+00:00,354.7679,1.71,12.57,47.84626,-54.09684
2021-04-10 11:29:01+00:00,353.8696,1.73,12.57,47.84626,-54.09684
2021-04-10 11:39:01+00:00,352.6762,1.8,12.57,47.84626,-54.09684
2021-04-10 11:49:01+00:00,351.2079,1.8,12.57,47.84626,-54.09684
2021-04-10 11:59:01+00:00,348.7463,1.8,12.57,47.84626,-54.09684
2021-04-10 12:09:01+00:00,347.5579,1.8,12.57,47.84626,-54.09684
2021-04-10 12:19:01+00:00,345.8879,1.8,12.81,47.84626,-54.09684
2021-04-10 12:29:01+00:00,344.3329,1.79,12.81,47.84626,-54.09684
2021-04-10 12:39:01+00:00,340.4012,1.8,12.81,47.84626,-54.09684
2021-04-10 12:49:01+00:00,335.8663,1.8,12.81,47.84626,-54.09684
2021-04-10 12:59:01+00:00,332.4479,1.79,12.81,47.84626,-54.09684
2021-04-10 13:09:01+00:00,326.933,1.8,12.81,47.84626,-54.09684
2021-04-10 13:19:01+00:00,321.2496,1.8,13.05,47.84626,-54.09684
2021-04-10 13:29:01+00:00,313.1163,1.73,13.05,47.84626,-54.09684
2021-04-10 13:39:01+00:00,303.8831,1.78,13.05,47.84626,-54.09684
2021-04-10 13:49:01+00:00,294.8563,1.8,13.05,47.84626,-54.09684
2021-04-10 13:59:01+00:00,287.6597,1.7,13.05,47.84626,-54.09684
2021-04-10 14:09:01+00:00,279.3647,1.6,13.05,47.84626,-54.09684
2021-04-10 14:19:01+00:00,271.7031,1.78,13.13,47.84626,-54.09684
2021-04-10 14:29:01+00:00,264.9698,1.8,13.13,47.84626,-54.09684
2021-04-10 14:39:01+00:00,256.3931,1.8,13.13,47.84626,-54.09684
2021-04-10 14:49:01+00:00,245.5464,1.8,13.13,47.84626,-54.09684
2021-04-10 14:59:01+00:00,238.5315,1.73,13.13,47.84626,-54.09684
2021-04-10 15:09:01+00:00,233.9597,1.6,13.13,47.84626,-54.09684
2021-04-10 15:19:01+00:00,227.078,1.5,13.21,47.84626,-54.09684
2021-04-10 15:29:01+00:00,220.8798,1.5,13.21,47.84626,-54.09684
2021-04-10 15:39:01+00:00,218.2731,1.56,13.21,47.84626,-54.09684
2021-04-10 15:49:01+00:00,215.0397,1.6,13.21,47.84626,-54.09684
2021-04-10 15:59:01+00:00,210.5181,1.6,13.21,47.84626,-54.09684
2021-04-10 16:09:01+00:00,205.9248,1.6,13.21,47.84626,-54.09684
2021-04-10 16:19:01+00:00,202.5548,1.63,13.37,47.84626,-54.09684
2021-04-10 16:29:01+00:00,201.7931,1.7,13.37,47.84626,-54.09684
2021-04-10 16:39:01+00:00,201.7714,1.76,13.37,47.84626,-54.09684
2021-04-10 16:49:01+00:00,200.8431,1.77,13.37,47.84626,-54.09684
2021-04-10 16:59:01+00:00,201.3648,1.7,13.37,47.84626,-54.09684
2021-04-10 17:09:01+00:00,203.0798,1.7,13.37,47.84626,-54.09684
2021-04-10 17:19:01+00:00,205.6998,1.69,13.37,47.84626,-54.09684
2021-04-10 17:29:01+00:00,208.3548,1.6,13.37,47.84626,-54.09684
2021-04-10 17:39:01+00:00,211.5847,1.59,13.37,47.84626,-54.09684
2021-04-10 17:49:01+00:00,213.3165,1.5,13.37,47.84626,-54.09684
2021-04-10 17:59:01+00:00,216.2648,1.48,13.37,47.84626,-54.09684
2021-04-10 18:09:01+00:00,220.6864,1.46,13.37,47.84626,-54.09684
2021-04-10 18:19:01+00:00,223.9198,1.47,13.44,47.84626,-54.09684
2021-04-10 18:29:01+00:00,225.1914,1.48,13.44,47.84626,-54.09684
2021-04-10 18:39:01+00:00,227.6531,1.49,13.44,47.84626,-54.09684
2021-04-10 18:49:01+00:00,231.5714,1.49,13.44,47.84626,-54.09684
2021-04-10 18:59:01+00:00,235.6548,1.46,13.44,47.84626,-54.09684
2021-04-10 19:09:01+00:00,238.6864,1.42,13.44,47.84626,-54.09684
2021-04-10 19:19:01+00:00,243.3564,1.47,13.29,47.84626,-54.09684
2021-04-10 19:29:01+00:00,248.2848,1.49,13.29,47.84626,-54.09684
2021-04-10 19:39:01+00:00,251.9865,1.49,13.29,47.84626,-54.09684
2021-04-10 19:49:01+00:00,255.3998,1.4,13.29,47.84626,-54.09684
2021-04-10 19:59:01+00:00,261.1148,1.4,13.29,47.84626,-54.09684
2021-04-10 20:09:01+00:00,266.808,1.4,13.29,47.84626,-54.09684
2021-04-10 20:19:01+00:00,271.0814,1.42,13.21,47.84626,-54.09684
2021-04-10 20:29:01+00:00,276.9814,1.43,13.21,47.84626,-54.09684
2021-04-10 20:39:01+00:00,283.5264,1.4,13.21,47.84626,-54.09684
2021-04-10 20:49:01+00:00,290.8981,1.38,13.21,47.84626,-54.09684
2021-04-10 20:59:01+00:00,297.9747,1.4,13.21,47.84626,-54.09684
2021-04-10 21:09:01+00:00,304.2913,1.4,13.21,47.84626,-54.09684
2021-04-10 21:19:01+00:00,311.96299999999997,1.38,12.97,47.84626,-54.09684
2021-04-10 21:29:01+00:00,319.238,1.33,12.97,47.84626,-54.09684
2021-04-10 21:39:01+00:00,325.2795,1.3,12.97,47.84626,-54.09684
2021-04-10 21:49:01+00:00,330.8046,1.3,12.97,47.84626,-54.09684
2021-04-10 21:59:01+00:00,338.0846,1.3,12.97,47.84626,-54.09684
2021-04-10 22:09:01+00:00,345.1613,1.3,12.97,47.84626,-54.09684
2021-04-10 22:19:01+00:00,348.7297,1.3,12.73,47.84626,-54.09684
2021-04-10 22:29:01+00:00,352.5546,1.32,12.73,47.84626,-54.09684
2021-04-10 22:39:01+00:00,354.38300000000015,1.36,12.73,47.84626,-54.09684
2021-04-10 22:49:01+00:00,354.3195,1.33,12.73,47.84626,-54.09684
2021-04-10 22:59:01+00:00,352.8229,1.36,12.73,47.84626,-54.09684
2021-04-10 23:09:01+00:00,351.903,1.37,12.73,47.84626,-54.09684
2021-04-10 23:19:01+00:00,353.8379,1.34,12.73,47.84626,-54.09684
2021-04-10 23:29:01+00:00,350.3229,1.3,12.73,47.84626,-54.09684
2021-04-10 23:39:01+00:00,349.9764,1.1,12.73,47.84626,-54.09684
2021-04-10 23:49:01+00:00,353.4962,1.09,12.73,47.84626,-54.09684
2021-04-10 23:59:01+00:00,353.5164,1.08,12.73,47.84626,-54.09684
